Weather History for Springfield, IL

Change the Weather History Date:

Monday, July 1, 2013

  Actual Average Record
Temperature  
Mean Temperature 71 °F 76 °F  
Max Temperature 80 °F 86 °F 102 °F (1931)
Min Temperature 61 °F 65 °F 51 °F (1984)
Degree Days  
Heating Degree Days 0 0  
Month to date heating degree days 0 0  
Since 1 June heating degree days 12 15  
Since 1 July heating degree days 0 0  
Cooling Degree Days 6 11  
Month to date cooling degree days 6 11  
Year to date cooling degree days 390 355  
Since 1 June cooling degree days 264 251  
Growing Degree Days 21 (Base 50)    
Moisture  
Dew Point 53 °F    
Average Humidity 56    
Maximum Humidity 72    
Minimum Humidity 39    
Precipitation  
Precipitation T in 0.13 in 3.18 in (1993)
Month to date precipitation T 0.13  
Year to date precipitation 27.07 18.60  
Snow  
Snow 0.00 in 0.00 in 0.00 in ()
Month to date snowfall 0.0 0.0  
Since 1 June snowfall 0.0 0.0  
Since 1 July snowfall 0.0 0.0  
Snow Depth 0.00 in    
Sea Level Pressure  
Sea Level Pressure 29.97 in    
Wind  
Wind Speed 12 mph (NNE)    
Max Wind Speed 22 mph    
Max Gust Speed 32 mph    
Visibility 10 miles    
Events      
T = Trace of Precipitation, MM = Missing Value Source: NWS Daily Summary

Daily Weather History Graph

Daily Weather History Graph

Search for Another Location

Airport:

Trip Planner

Search our weather history database for the weather conditions in past years. The results will help you decide how hot, cold, wet, or windy it might be!

Date:

Astronomy

Jul. 01, 2013 Rise Set
Actual Time 5:34 AM CDT 8:30 PM CDT
Civil Twilight 5:01 AM CDT 9:03 PM CDT
Nautical Twilight 4:20 AM CDT 9:44 PM CDT
Astronomical Twilight 3:32 AM CDT 10:32 PM CDT
Moon 1:03 AM CDT (7/1) 2:46 PM CDT (7/1)
Length of Visible Light 16h 01m
Length of Day
14h 56m
Waning Crescent, 35% of the Moon is Illuminated
Jul 1
Waning Crescent
Jul 8
New
Jul 15
First Quarter
Jul 22
Full
Jul 29
Last Quarter

Hourly Weather History & Observations

Time (CDT) Temp. Heat Index Dew Point Humidity Pressure Visibility Wind Dir Wind Speed Gust Speed Precip Events Conditions
12:52 AM 66.0 °F - 48.9 °F 54% 29.95 in 10.0 mi North 9.2 mph - N/A   Overcast
1:52 AM 64.0 °F - 52.0 °F 65% 29.94 in 10.0 mi North 9.2 mph - N/A   Overcast
2:52 AM 64.0 °F - 50.0 °F 60% 29.94 in 10.0 mi North 8.1 mph - N/A   Overcast
3:52 AM 63.0 °F - 48.9 °F 60% 29.95 in 10.0 mi North 10.4 mph - 0.00 in   Overcast
4:52 AM 63.0 °F - 50.0 °F 63% 29.94 in 10.0 mi North 9.2 mph - 0.00 in   Mostly Cloudy
5:52 AM 62.1 °F - 51.1 °F 67% 29.95 in 10.0 mi North 8.1 mph - N/A   Scattered Clouds
6:52 AM 62.1 °F - 53.1 °F 72% 29.96 in 10.0 mi North 10.4 mph - N/A   Overcast
7:52 AM 64.0 °F - 54.0 °F 70% 29.98 in 10.0 mi North 10.4 mph - N/A   Overcast
8:52 AM 66.0 °F - 55.0 °F 68% 29.99 in 10.0 mi North 11.5 mph - N/A   Clear
9:52 AM 71.1 °F - 55.0 °F 57% 29.98 in 10.0 mi North 10.4 mph - N/A   Clear
10:52 AM 73.9 °F - 54.0 °F 50% 29.99 in 10.0 mi NNE 13.8 mph - N/A   Clear
11:52 AM 75.9 °F - 54.0 °F 46% 29.98 in 10.0 mi North 16.1 mph - N/A   Clear
12:52 PM 78.1 °F - 55.9 °F 46% 29.97 in 10.0 mi NNE 13.8 mph - N/A   Clear
1:52 PM 79.0 °F - 54.0 °F 42% 29.97 in 10.0 mi NE 19.6 mph 25.3 mph N/A   Clear
2:52 PM 80.1 °F 80.0 °F 54.0 °F 40% 29.97 in 10.0 mi NNE 15.0 mph 24.2 mph N/A   Clear
3:52 PM 79.0 °F - 53.1 °F 40% 29.96 in 10.0 mi NNE 15.0 mph 23.0 mph N/A   Clear
4:52 PM 79.0 °F - 52.0 °F 39% 29.96 in 10.0 mi North 15.0 mph 24.2 mph N/A   Clear
5:52 PM 75.9 °F - 52.0 °F 43% 29.97 in 10.0 mi NNE 13.8 mph 20.7 mph N/A   Clear
6:52 PM 75.0 °F - 53.1 °F 46% 29.97 in 10.0 mi NNE 12.7 mph - N/A   Scattered Clouds
7:52 PM 73.0 °F - 51.1 °F 46% 29.98 in 10.0 mi NNE 12.7 mph - N/A   Clear
8:52 PM 71.1 °F - 51.1 °F 49% 29.99 in 10.0 mi NNE 10.4 mph - N/A   Clear
9:52 PM 70.0 °F - 53.1 °F 55% 30.01 in 10.0 mi NNE 8.1 mph - N/A   Overcast
10:52 PM 70.0 °F - 57.9 °F 65% 30.01 in 10.0 mi NNE 6.9 mph - N/A   Overcast
11:52 PM 68.0 °F - 57.0 °F 68% 30.01 in 10.0 mi NNE 9.2 mph - N/A   Mostly Cloudy